FW3866 Weather Reports


time (UTC)temp
F
wind
direction
speed
knots
gust
knots
rain 1hr
in
rain 24hr
in
rain mn
in
humidity
%
barometer
mb
20260504222715 56 347 11.3 15.6 0.00 0.00 0.00 41 1009.8
20260504222215 56 347 10.4 15.6 0.00 0.00 0.00 43 1009.8
20260504221712 56 321 11.3 18.2 0.00 0.00 0.00 42 1009.8
20260504221212 56 350 8.7 18.2 0.00 0.00 0.00 42 1009.8
20260504220713 56 312 13.0 20.9 0.00 0.00 0.00 42 1009.7
20260504220213 56 324 15.6 20.9 0.00 0.00 0.00 42 1009.9
20260504215714 56 302 11.3 20.0 0.00 0.00 0.00 43 1009.6
20260504215214 56 314 13.0 20.0 0.00 0.00 0.00 42 1009.9
20260504214712 56 316 13.9 19.1 0.00 0.00 0.00 43 1009.9
20260504214213 56 306 15.6 24.3 0.00 0.00 0.00 43 1009.9
20260504213713 56 306 13.0 24.3 0.00 0.00 0.00 44 1009.8
20260504213211 56 313 18.2 20.9 0.00 0.00 0.00 44 1009.7
20260504212712 55 331 13.9 20.0 0.00 0.00 0.00 43 1009.9
20260504212214 56 336 13.0 25.2 0.00 0.00 0.00 42 1010.1
20260504210713 56 355 11.3 23.5 0.00 0.00 0.00 41 1010.4
20260504205712 56 343 15.6 22.6 0.00 0.00 0.00 43 1010.4
20260504205212 55 337 14.8 27.8 0.00 0.00 0.00 43 1010.5
20260504204711 55 319 17.4 27.8 0.00 0.00 0.00 42 1010.6
20260504204212 55 306 16.5 25.2 0.00 0.00 0.00 44 1010.6
20260504203712 54 338 11.3 23.5 0.00 0.00 0.00 45 1010.7
20260504202211 54 0 11.3 23.5 0.00 0.00 0.00 44 1011.0
20260504201711 54 327 13.9 22.6 0.00 0.00 0.00 44 1010.7
20260504201211 54 316 16.5 23.5 0.00 0.00 0.00 44 1010.8
20260504200711 54 320 14.8 23.5 0.00 0.00 0.00 46 1011.0
20260504200211 55 321 17.4 25.2 0.00 0.00 0.00 44 1010.6
20260504195711 55 321 16.5 26.9 0.00 0.00 0.00 45 1010.9
20260504195210 55 326 20.0 26.9 0.00 0.00 0.00 45 1010.8
20260504194711 55 326 14.8 22.6 0.00 0.00 0.00 47 1010.6
20260504194211 55 316 13.9 22.6 0.00 0.00 0.00 48 1010.5
20260504193711 54 0 15.6 22.6 0.00 0.00 0.00 47 1010.9
20260504193211 54 350 14.8 24.3 0.00 0.00 0.00 48 1011.0
20260504192709 54 340 16.5 24.3 0.00 0.00 0.00 48 1011.0
20260504192209 54 331 18.2 23.5 0.00 0.00 0.00 48 1010.4
20260504191710 54 326 16.5 23.5 0.00 0.00 0.00 48 1010.6
20260504191210 54 351 16.5 26.1 0.00 0.00 0.00 49 1010.5
20260504190208 53 324 13.9 20.9 0.00 0.00 0.00 50 1010.6
20260504185709 53 314 13.0 22.6 0.00 0.00 0.00 49 1010.5
20260504184209 54 309 16.5 23.5 0.00 0.00 0.00 50 1010.5
20260504183710 53 336 14.8 19.1 0.00 0.00 0.00 49 1010.6
20260504182709 54 326 13.9 20.0 0.00 0.00 0.00 49 1010.6
20260504182209 53 336 9.6 19.1 0.00 0.00 0.00 52 1010.7
20260504181708 52 355 12.2 22.6 0.00 0.00 0.00 51 1010.6
20260504181207 52 343 14.8 23.5 0.00 0.00 0.00 50 1010.6
20260504180708 53 357 16.5 24.3 0.00 0.00 0.00 50 1010.6
20260504175709 53 334 13.9 24.3 0.00 0.00 0.00 50 1010.5
20260504175207 53 348 16.5 24.3 0.00 0.00 0.00 48 1010.5
20260504174707 53 336 13.0 19.1 0.00 0.00 0.00 50 1010.5
20260504174208 53 0.0 18.2 0.00 0.00 0.00 50 1010.3
20260504173707 53 327 18.2 18.2 0.00 0.00 0.00 49 1010.3
20260504173207 53 0 14.8 20.9 0.00 0.00 0.00 48 1010.1
20260504172707 54 323 13.0 20.9 0.00 0.00 0.00 49 1009.6
20260504172206 54 350 9.6 26.9 0.00 0.00 0.00 49 1010.1
20260504171706 54 326 16.5 26.9 0.00 0.00 0.00 48 1010.1
20260504171206 54 0 16.5 24.3 0.00 0.00 0.00 48 1010.3
20260504170708 54 338 13.0 20.9 0.00 0.00 0.00 48 1010.1
20260504170206 54 355 17.4 23.5 0.00 0.00 0.00 48 1010.1
20260504160206 54 350 13.9 24.3 0.00 0.00 0.00 45 1008.9
20260504150704 55 327 13.0 23.5 0.00 0.00 0.00 47 1008.5
20260504150204 55 317 14.8 20.0 0.00 0.00 0.00 49 1008.5
20260504141203 52 354 8.7 14.8 0.00 0.00 0.00 67 1008.0
20260504140704 51 313 10.4 13.9 0.00 0.00 0.00 67 1008.0
20260504140201 51 331 8.7 14.8 0.00 0.00 0.00 67 1008.0
20260504130702 48 345 3.5 5.2 0.00 0.00 0.00 79 1007.2
20260504130200 47 317 4.3 5.2 0.00 0.00 0.00 79 1007.1
20260504120200 0 348 4.3 6.1 0.00 0.00 0.00 1006.1
20260504100157 46 321 5.2 8.7 0.00 0.00 0.00 82 1004.2
20260504081654 53 245 12.2 15.6 0.00 0.00 0.00 74 1002.6
20260504081154 53 241 12.2 16.5 0.00 0.00 0.00 74 1002.3
20260504080653 52 240 13.9 16.5 0.00 0.00 0.00 74 1002.7
20260504080154 52 241 12.2 14.8 0.00 0.00 0.00 74 1002.7
20260504070152 50 264 7.0 9.6 0.00 0.00 0.00 75 1004.1
20260504060150 54 240 10.4 13.0 0.00 0.00 0.00 65 1004.6
20260504050649 56 217 13.9 16.5 0.00 0.00 0.00 59 1004.8
20260504050148 55 216 11.3 14.8 0.00 0.00 0.00 59 1005.0
20260504045150 54 210 10.4 12.2 0.00 0.00 0.00 61 1005.2
20260504044649 53 203 10.4 12.2 0.00 0.00 0.00 62 1005.2
20260504044148 52 216 9.6 11.3 0.00 0.00 0.00 63 1005.4
20260504043649 53 212 8.7 12.2 0.00 0.00 0.00 62 1005.4
20260504043147 53 213 9.6 12.2 0.00 0.00 0.00 62 1005.4
20260504042147 53 209 9.6 13.9 0.00 0.00 0.00 60 1005.6
20260504041647 54 214 11.3 14.8 0.00 0.00 0.00 60 1005.5
20260504041148 53 209 12.2 14.8 0.00 0.00 0.00 60 1005.4
20260504040648 53 207 10.4 11.3 0.00 0.00 0.00 60 1005.6
20260504040147 53 209 7.8 11.3 0.00 0.00 0.00 59 1005.6
20260504035648 53 209 9.6 11.3 0.00 0.00 0.00 59 1005.7
20260504035146 53 202 8.7 10.4 0.00 0.00 0.00 60 1005.6
20260504034147 53 203 7.8 11.3 0.00 0.00 0.00 60 1005.8
20260504033646 54 202 7.8 11.3 0.00 0.00 0.00 59 1005.8
20260504033147 54 202 9.6 11.3 0.00 0.00 0.00 59 1005.9
20260504032645 53 209 8.7 11.3 0.00 0.00 0.00 59 1005.9
20260504032147 53 196 6.1 7.8 0.00 0.00 0.00 60 1005.9
20260504031647 53 0.0 8.7 0.00 0.00 0.00 62 1005.9
20260504031145 52 197 7.0 8.7 0.00 0.00 0.00 62 1006.1
20260504030646 52 197 5.2 7.8 0.00 0.00 0.00 63 1006.2
20260504030145 52 197 5.2 7.8 0.00 0.00 0.00 63 1006.2
20260504025646 52 196 4.3 8.7 0.00 0.00 0.00 64 1006.4
20260504025145 51 195 5.2 8.7 0.00 0.00 0.00 64 1006.4
20260504024646 51 192 5.2 7.8 0.00 0.00 0.00 65 1006.5
20260504024146 51 193 5.2 7.8 0.00 0.00 0.00 64 1006.6
20260504023646 51 195 4.3 6.1 0.00 0.00 0.00 64 1006.7
20260504023144 51 190 5.2 7.8 0.00 0.00 0.00 63 1006.8
20260504022644 51 199 6.1 8.7 0.00 0.00 0.00 62 1006.8
20260504021644 52 200 7.0 7.8 0.00 0.00 0.00 61 1006.8
20260504021146 52 199 6.1 8.7 0.00 0.00 0.00 61 1006.8
20260504020644 52 199 7.0 9.6 0.00 0.00 0.00 60 1006.9
20260504020144 53 204 8.7 9.6 0.00 0.00 0.00 59 1006.9
20260504015643 53 203 7.8 8.7 0.00 0.00 0.00 57 1007.0
20260504015145 55 209 7.8 8.7 0.00 0.00 0.00 54 1007.0
20260504014143 56 221 6.1 7.8 0.00 0.00 0.00 51 1007.3
20260504013644 58 224 5.2 6.1 0.00 0.00 0.00 48 1007.4
20260504012644 60 224 5.2 7.8 0.00 0.00 0.00 45 1007.5
20260504012142 61 240 6.1 7.8 0.00 0.00 0.00 45 1007.7
20260504011643 62 248 5.2 6.1 0.00 0.00 0.00 44 1007.6
20260504011143 63 248 5.2 8.7 0.00 0.00 0.00 43 1007.8
20260504010642 64 261 6.1 9.6 0.00 0.00 0.00 41 1007.9
20260504010144 65 262 7.0 9.6 0.00 0.00 0.00 39 1008.0
20260504005642 66 255 7.8 9.6 0.00 0.00 0.00 38 1007.9
20260504005142 67 257 7.8 12.2 0.00 0.00 0.00 38 1008.0
20260504004143 68 268 8.7 13.0 0.00 0.00 0.00 35 1008.3
20260504002643 68 255 9.6 13.9 0.00 0.00 0.00 35 1008.4
20260504002143 69 259 9.6 16.5 0.00 0.00 0.00 34 1008.5
20260504001641 69 245 11.3 16.5 0.00 0.00 0.00 34 1008.6
20260504001143 69 255 11.3 16.5 0.00 0.00 0.00 35 1008.7
20260504000641 69 281 7.8 16.5 0.00 0.00 0.00 35 1008.7
20260503235641 69 247 13.0 17.4 0.00 0.00 0.00 34 1008.8
20260503235143 69 258 13.0 17.4 0.00 0.00 0.00 33 1009.0
20260503234641 70 262 10.4 14.8 0.00 0.00 0.00 32 1009.1
20260503234141 70 272 12.2 20.9 0.00 0.00 0.00 31 1009.1
20260503233641 70 290 14.8 20.9 0.00 0.00 0.00 31 1009.3
20260503233140 70 303 9.6 16.5 0.00 0.00 0.00 33 1009.3
20260503232641 70 282 11.3 18.2 0.00 0.00 0.00 30 1009.4
20260503232140 70 286 12.2 18.2 0.00 0.00 0.00 31 1009.4
20260503231140 70 257 14.8 18.2 0.00 0.00 0.00 32 1009.5
20260503230641 70 262 11.3 19.1 0.00 0.00 0.00 31 1009.4
20260503230140 70 264 7.8 19.1 0.00 0.00 0.00 30 1009.6
20260503225141 71 240 13.0 16.5 0.00 0.00 0.00 31 1009.5
20260503224640 70 282 9.6 17.4 0.00 0.00 0.00 32 1009.7
20260503224139 71 281 12.2 17.4 0.00 0.00 0.00 31 1009.8
20260503223640 70 319 13.0 17.4 0.00 0.00 0.00 30 1009.8